Wind_Speed
17 14 9 8 11 6 7 9 3 9 10 16 12 14 13 14 16 18 16 21 22 21 22 20 17 16 16 16 16 16 17 15 13 12 11 11 10 9 7 7 7 7 6
15 13 10 7 5 6 5 3 13 6 9 9 11 9 10 9 10 16 16 20 25 24 23 23 21 19 17 17 15 14 13 12 13 11 10 10 9 9 9 8 8 8 7
14 14 11 6 5 8 5 4 7 6 6 9 9 9 10 9 9 10 15 19 23 24 22 21 22 20 19 18 17 15 13 13 13 12 12 10 9 8 7 7 7 7 7
15 14 10 8 6 9 10 9 7 8 5 8 9 8 10 7 10 9 13 19 19 21 22 23 21 18 16 16 15 14 12 10 11 10 10 10 8 8 7 6 6 6 5
14 14 10 8 7 10 8 6 7 1 3 6 6 7 9 7 9 9 12 18 15 17 20 20 21 20 17 16 15 15 14 12 11 10 10 10 9 8 6 5 5 5 5
11 11 10 8 5 6 7 8 7 5 3 4 7 7 5 6 10 10 12 16 15 14 16 19 20 20 18 16 15 15 14 14 13 11 10 10 10 10 8 7 5 4 4
11 10 9 9 6 9 4 3 4 5 3 11 11 6 6 3 7 12 15 14 13 14 13 14 17 19 19 18 17 16 16 16 15 13 12 10 9 8 7 6 5 4 3
14 11 11 7 5 6 8 7 4 3 1 4 12 6 3 5 5 6 8 10 13 13 15 15 14 16 15 17 17 15 14 14 14 14 14 12 11 10 8 6 5 4 3
15 14 9 6 7 7 7 13 6 2 2 4 4 9 5 3 7 5 7 4 12 13 13 14 14 15 13 13 15 15 14 13 13 12 13 12 11 10 8 7 6 4 2
14 13 8 5 4 2 10 12 7 3 8 5 7 10 5 8 9 4 3 7 17 12 13 11 13 11 11 11 12 13 12 10 10 11 11 11 10 9 7 6 4 3 2
14 11 6 6 7 5 5 5 6 3 6 12 12 8 8 11 10 5 6 5 5 10 7 11 13 14 9 10 10 10 10 9 7 7 8 8 7 6 6 5 4 3 3
15 12 11 7 4 5 6 5 3 5 5 7 10 10 8 6 13 13 13 8 9 10 8 7 2 12 12 10 9 7 7 6 4 3 3 3 3 3 2 1 2 3 4
14 13 12 9 9 9 7 7 5 6 11 9 8 7 4 5 12 10 8 7 5 9 6 5 5 6 9 8 6 3 5 4 3 3 2 1 1 1 1 1 2 3 4
18 17 13 7 9 11 9 7 6 6 8 10 9 10 11 10 9 7 6 7 11 10 9 9 7 7 6 7 5 4 6 3 3 4 3 3 2 2 2 3 3 4 5
15 14 14 14 13 14 12 10 9 7 7 9 11 11 10 11 11 9 7 8 9 10 12 14 10 6 10 10 7 5 4 3 4 7 5 4 4 4 5 5 6 7 9
14 16 17 15 16 16 13 11 12 11 9 12 13 11 11 10 11 12 11 10 7 7 9 2 5 6 11 10 7 6 5 4 4 6 7 9 9 9 9 10 10 11 13
18 16 14 16 17 17 15 12 13 14 12 14 11 10 8 9 10 10 11 13 11 10 9 9 9 11 10 7 6 8 9 9 9 11 11 12 12 12 13 14 15 16 17
16 17 17 17 16 16 14 14 15 15 15 15 12 10 9 8 9 9 10 12 12 12 12 11 12 11 11 11 12 12 14 13 14 15 15 16 17 17 18 18 19 20 22
19 20 19 18 18 17 16 16 16 16 17 15 15 15 13 11 10 10 11 12 12 12 13 13 14 12 13 16 17 16 16 14 16 18 19 20 21 22 23 23 24 25 26
15 18 20 20 18 19 18 18 18 17 18 17 17 17 17 16 14 13 14 14 14 14 15 16 16 15 16 18 17 16 17 19 17 18 21 22 24 25 27 27 28 29 29
18 18 19 21 22 21 20 20 20 19 19 20 21 20 20 21 20 19 18 17 18 18 17 17 17 16 17 20 19 17 19 20 23 25 23 25 26 27 29 29 31 33 33
22 19 18 19 21 23 23 22 21 20 19 19 20 22 23 23 23 23 24 24 22 22 21 20 19 19 19 20 22 22 22 23 23 27 27 29 30 31 32 33 35 37 37
24 24 20 21 21 21 22 23 22 21 22 23 23 22 23 25 25 26 27 28 28 28 26 24 25 26 27 28 26 27 28 27 27 30 29 29 34 34 35 35 36 39 41
26 26 22 21 21 21 21 21 22 23 23 24 26 26 26 26 28 28 29 30 31 30 30 30 30 29 29 30 31 32 32 32 32 33 37 35 36 35 38 38 41 43 43
21 25 25 24 23 24 24 25 24 25 25 29 30 28 29 28 29 29 28 31 32 32 32 31 31 33 34 36 35 33 33 34 34 35 38 39 37 40 41 39 42 43 46
22 24 25 26 26 26 27 24 24 25 26 28 28 28 28 28 31 34 32 31 32 33 33 34 33 34 36 37 38 39 39 41 41 39 42 44 41 43 43 40 43 44 46
Wind_Direction
178 174 166 198 230 249 236 218 211 93 83 66 68 67 71 70 75 82 81 91 93 98 102 105 111 119 125 132 134 137 139 143 141 143 146 148 148 148 154 163 154 158 163
171 167 175 203 249 227 249 116 123 74 83 89 91 87 80 74 73 82 81 87 92 94 96 103 104 103 107 113 122 132 139 141 138 138 140 142 145 145 153 155 152 153 159
161 173 167 162 163 218 185 113 105 99 102 101 103 115 100 82 76 83 91 78 84 89 93 96 97 101 106 107 108 109 112 120 123 129 134 137 141 143 147 149 157 158 164
165 173 170 147 176 189 189 159 154 79 118 142 139 121 101 93 89 84 84 85 81 88 89 91 94 99 103 107 107 107 110 115 115 122 125 126 130 132 137 139 147 154 159
173 164 167 182 202 187 183 172 186 142 143 94 103 112 97 96 94 87 84 82 77 83 88 87 89 88 90 96 106 113 117 117 113 115 112 112 111 106 112 118 124 135 145
182 179 154 191 181 182 185 185 182 288 184 290 153 120 140 120 100 92 90 79 81 76 88 98 97 96 92 93 99 102 103 103 105 109 111 107 104 102 105 105 108 118 131
195 188 173 178 170 180 166 168 183 185 155 135 129 107 122 173 126 98 94 97 94 93 90 91 99 101 103 98 93 94 99 100 101 101 100 104 108 112 109 104 102 102 103
194 188 188 176 164 196 176 159 153 104 353 165 143 72 168 126 110 128 107 116 113 113 106 99 94 95 97 104 103 98 96 98 100 99 96 93 94 101 116 118 118 119 113
190 196 202 178 166 207 161 162 162 89 239 214 220 148 148 171 186 196 73 335 148 130 116 111 113 104 98 103 105 104 101 101 103 106 106 104 103 103 107 111 120 133 134
191 198 209 191 163 182 182 160 172 178 183 146 129 154 169 184 170 176 275 55 127 146 132 115 121 124 105 105 107 107 101 96 99 103 106 108 107 107 108 108 105 95 82
191 197 204 214 176 172 150 166 165 162 181 168 162 152 117 156 163 199 154 206 173 168 132 136 149 140 127 128 120 112 111 113 106 98 97 95 95 94 93 90 77 57 32
192 190 190 198 215 217 180 189 172 135 142 170 158 163 165 201 180 169 178 169 158 170 128 140 168 124 130 127 122 116 119 121 118 99 86 92 101 100 94 74 51 34 16
193 196 199 189 202 216 198 183 188 184 147 171 210 172 156 119 169 191 159 178 155 159 148 152 139 163 143 154 149 116 143 129 158 178 177 183 172 160 104 61 21 349 336
191 199 204 200 217 214 206 179 195 213 175 172 205 200 181 189 186 192 167 194 180 188 202 177 172 170 169 166 173 160 151 162 214 210 220 226 232 251 259 273 291 305 307
188 200 210 206 222 216 205 191 195 221 226 200 199 190 184 193 183 191 185 196 203 203 202 195 182 164 187 181 207 191 178 215 203 203 223 229 234 253 263 270 281 292 297
206 207 218 210 221 217 211 200 200 215 232 223 210 190 191 188 191 191 199 198 212 209 229 250 216 226 234 192 202 218 232 244 238 234 241 243 248 251 260 269 276 283 287
206 211 224 209 213 213 218 212 210 213 228 236 225 204 211 209 205 204 200 212 218 220 208 218 226 240 243 246 232 252 260 264 269 270 270 268 266 267 272 276 279 281 285
215 219 221 213 226 223 218 222 228 224 222 236 242 238 224 219 233 237 218 222 223 239 238 241 244 244 254 260 255 257 263 272 274 276 277 278 279 279 280 281 284 283 283
222 218 220 215 222 234 242 240 230 236 240 236 241 251 250 241 228 240 243 236 236 238 242 245 252 253 259 258 262 267 270 270 275 280 282 282 282 282 283 284 284 285 287
224 226 226 228 227 228 230 239 241 237 247 252 250 254 261 260 254 243 243 255 260 257 251 250 251 253 256 258 257 262 272 273 269 276 279 283 282 282 283 284 284 285 286
222 223 223 225 231 233 234 237 243 243 244 251 257 258 258 261 265 264 259 254 256 259 263 264 264 259 260 267 269 267 265 276 274 280 280 284 282 282 284 287 288 288 288
232 229 222 228 232 234 237 238 241 244 251 256 259 262 263 266 264 264 268 268 263 260 261 265 270 269 264 267 267 268 272 271 275 281 285 284 283 285 286 288 288 287 288
235 228 226 225 232 236 238 242 247 251 253 257 257 257 259 262 265 268 268 269 270 271 269 266 267 269 272 272 273 275 278 280 281 282 281 280 281 283 285 285 284 285 289
235 219 220 222 228 235 242 243 244 248 252 253 255 255 257 262 261 260 263 267 268 269 271 272 276 278 274 273 274 274 276 277 278 280 282 282 283 283 280 284 289 290 289
228 221 224 229 232 240 245 247 250 252 256 255 256 258 262 265 265 263 262 263 264 266 269 269 269 272 276 277 276 275 276 277 279 279 280 277 275 276 279 281 285 286 288
223 229 241 244 246 248 246 249 255 256 253 256 256 254 258 259 264 268 264 263 266 264 266 267 267 268 269 270 273 273 276 279 278 275 273 274 272 275 273 278 279 281 284
Height
5906 5910 5913 5914 5914 5916 5917 5915 5911 5915 5914 5913 5912 5912 5914 5915 5914 5911 5909 5902 5899 5898 5896 5897 5900 5902 5903 5905 5906 5907 5908 5910 5911 5914 5916 5917 5919 5921 5922 5924 5926 5928 5929
5906 5911 5913 5916 5917 5918 5916 5914 5914 5912 5915 5915 5916 5916 5917 5919 5917 5913 5912 5908 5900 5899 5899 5901 5901 5903 5905 5907 5909 5909 5909 5910 5912 5915 5917 5918 5921 5922 5923 5925 5927 5928 5930
5907 5911 5913 5917 5918 5916 5916 5915 5916 5914 5917 5915 5915 5918 5918 5920 5919 5917 5914 5909 5905 5902 5903 5902 5903 5905 5908 5909 5911 5913 5914 5914 5915 5917 5918 5919 5921 5923 5924 5926 5928 5929 5931
5908 5912 5914 5917 5917 5917 5915 5916 5916 5917 5918 5919 5919 5918 5918 5919 5920 5921 5916 5909 5909 5907 5905 5905 5907 5909 5910 5911 5912 5914 5916 5918 5919 5919 5921 5922 5923 5925 5926 5928 5929 5930 5933
5910 5914 5917 5918 5916 5917 5919 5917 5916 5917 5918 5917 5918 5919 5918 5921 5920 5921 5918 5913 5915 5913 5910 5911 5912 5913 5915 5915 5917 5918 5919 5920 5921 5922 5923 5925 5925 5927 5928 5930 5931 5932 5933
5912 5915 5917 5917 5916 5919 5921 5917 5917 5917 5918 5918 5917 5920 5920 5922 5922 5922 5922 5919 5919 5920 5919 5916 5917 5917 5919 5921 5922 5921 5921 5921 5923 5925 5926 5927 5928 5929 5930 5931 5932 5934 5935
5913 5915 5916 5915 5917 5918 5920 5920 5917 5919 5918 5918 5918 5923 5924 5924 5927 5923 5922 5922 5924 5925 5925 5924 5922 5920 5920 5922 5924 5925 5925 5924 5926 5926 5927 5928 5929 5930 5931 5933 5934 5935 5935
5912 5913 5912 5913 5919 5919 5917 5920 5919 5919 5919 5921 5923 5923 5926 5928 5928 5927 5925 5925 5926 5927 5926 5925 5926 5924 5925 5923 5924 5926 5927 5927 5928 5929 5929 5930 5931 5932 5933 5934 5935 5935 5935
5911 5910 5911 5912 5916 5917 5916 5920 5921 5921 5919 5921 5922 5926 5928 5927 5929 5928 5928 5927 5928 5928 5927 5926 5926 5926 5927 5928 5926 5927 5929 5929 5930 5930 5930 5930 5932 5933 5934 5934 5935 5936 5936
5909 5910 5911 5913 5915 5916 5918 5922 5924 5922 5921 5922 5923 5926 5926 5927 5927 5927 5927 5927 5928 5929 5928 5927 5926 5927 5928 5929 5929 5928 5930 5931 5932 5932 5931 5931 5933 5933 5934 5935 5936 5936 5936
5908 5909 5911 5914 5915 5916 5918 5921 5924 5925 5925 5923 5924 5926 5926 5927 5928 5926 5928 5928 5928 5931 5929 5928 5925 5927 5929 5930 5930 5931 5931 5932 5934 5933 5933 5933 5934 5935 5935 5936 5936 5936 5936
5907 5907 5910 5914 5915 5916 5919 5921 5921 5923 5924 5923 5922 5926 5927 5926 5926 5927 5927 5930 5931 5933 5931 5929 5926 5923 5929 5932 5931 5932 5932 5933 5934 5935 5935 5935 5935 5936 5936 5936 5936 5936 5936
5904 5906 5909 5912 5914 5916 5917 5918 5921 5922 5922 5923 5923 5925 5925 5923 5925 5926 5927 5930 5931 5932 5932 5931 5928 5927 5930 5932 5933 5933 5932 5932 5933 5934 5935 5935 5935 5935 5936 5936 5936 5935 5935
5901 5904 5907 5910 5912 5915 5915 5916 5919 5921 5921 5921 5923 5923 5922 5922 5925 5927 5928 5930 5929 5929 5930 5929 5929 5929 5929 5930 5932 5931 5930 5931 5932 5933 5934 5934 5934 5934 5934 5934 5934 5933 5932
5900 5903 5906 5908 5911 5912 5912 5914 5916 5919 5920 5920 5921 5924 5922 5920 5924 5925 5927 5929 5930 5930 5924 5923 5926 5926 5927 5927 5931 5931 5929 5930 5930 5931 5932 5932 5932 5932 5932 5932 5931 5930 5929
5898 5901 5903 5905 5908 5911 5910 5912 5913 5916 5920 5920 5921 5923 5920 5920 5921 5922 5925 5927 5927 5927 5925 5925 5925 5924 5924 5919 5927 5927 5928 5928 5929 5929 5929 5929 5929 5929 5929 5928 5927 5926 5925
5895 5898 5901 5902 5904 5907 5909 5910 5912 5914 5916 5918 5917 5918 5919 5920 5919 5920 5921 5924 5925 5925 5924 5923 5925 5925 5923 5923 5924 5924 5925 5926 5927 5927 5927 5926 5926 5925 5925 5924 5922 5921 5921
5891 5895 5898 5900 5902 5904 5906 5907 5910 5911 5913 5914 5913 5913 5917 5917 5917 5917 5919 5920 5921 5922 5922 5922 5924 5924 5922 5922 5921 5922 5922 5924 5924 5924 5923 5923 5922 5920 5919 5918 5917 5916 5914
5889 5892 5895 5898 5900 5901 5901 5903 5906 5906 5908 5909 5910 5910 5912 5914 5915 5915 5916 5917 5917 5917 5918 5918 5919 5918 5917 5918 5918 5919 5919 5919 5919 5919 5918 5918 5917 5916 5914 5912 5910 5909 5908
5885 5888 5890 5892 5895 5897 5899 5900 5902 5904 5904 5904 5906 5907 5908 5910 5910 5912 5912 5912 5913 5914 5915 5915 5914 5913 5913 5913 5914 5914 5912 5911 5913 5912 5911 5911 5910 5909 5907 5905 5903 5902 5900
5881 5884 5886 5889 5891 5892 5894 5896 5898 5899 5901 5901 5901 5902 5904 5906 5907 5907 5907 5909 5910 5911 5911 5910 5910 5910 5909 5908 5908 5908 5907 5908 5906 5905 5905 5904 5903 5901 5899 5897 5895 5894 5892
5875 5878 5881 5884 5886 5887 5888 5891 5893 5893 5894 5896 5896 5896 5898 5900 5901 5903 5903 5904 5906 5905 5904 5904 5903 5903 5903 5903 5901 5900 5901 5900 5901 5898 5897 5896 5894 5892 5890 5888 5886 5884 5882
5869 5871 5874 5876 5878 5881 5883 5884 5887 5889 5890 5890 5890 5890 5891 5892 5893 5894 5896 5897 5898 5898 5898 5898 5897 5896 5896 5895 5895 5894 5893 5893 5893 5890 5889 5889 5885 5884 5880 5879 5877 5874 5872
5860 5864 5867 5869 5871 5873 5875 5877 5879 5881 5883 5883 5884 5885 5886 5886 5886 5888 5888 5888 5888 5889 5889 5890 5890 5889 5889 5887 5887 5886 5886 5885 5884 5883 5878 5880 5876 5875 5871 5869 5866 5864 5862
5857 5860 5861 5863 5865 5868 5869 5870 5872 5874 5874 5875 5875 5876 5877 5878 5878 5879 5879 5879 5878 5879 5880 5881 5881 5880 5878 5877 5877 5877 5876 5875 5875 5873 5869 5866 5866 5863 5862 5861 5857 5853 5849
5853 5856 5858 5859 5859 5861 5863 5865 5866 5867 5866 5867 5868 5868 5870 5870 5868 5868 5870 5871 5871 5870 5871 5871 5871 5870 5869 5868 5866 5866 5865 5864 5862 5864 5858 5853 5855 5852 5850 5851 5846 5842 5839